Time,TemperatureF,DewpointF,PressureIn,WindDirection,WindDirectionDegrees,WindSpeedMPH,WindSpeedGustMPH,Humidity,HourlyPrecipIn,Conditions,Clouds,dailyrainin,SoftwareType,DateUTC
2013-03-12 00:02:00,20.0,18.0,-100.00,West,273,12.0,19.0,91,0.00,,,0.00,,2013-03-12 06:02:00,
2013-03-12 00:12:00,20.0,18.0,-100.00,West,273,12.0,19.0,91,0.00,,,0.00,,2013-03-12 06:12:00,
2013-03-12 00:22:00,20.0,18.0,-100.00,West,273,12.0,19.0,91,0.00,,,0.00,,2013-03-12 06:22:00,
2013-03-12 00:52:00,20.0,18.0,-100.00,WSW,257,20.0,28.0,91,0.00,,,0.00,,2013-03-12 06:52:00,
2013-03-12 01:02:00,20.0,18.0,-100.00,WSW,257,20.0,28.0,91,0.00,,,0.00,,2013-03-12 07:02:00,
2013-03-12 01:12:00,20.0,18.0,-100.00,WSW,257,20.0,28.0,91,0.00,,,0.00,,2013-03-12 07:12:00,
2013-03-12 01:22:00,20.0,18.0,-100.00,WSW,257,20.0,28.0,91,0.00,,,0.00,,2013-03-12 07:22:00,
2013-03-12 01:52:00,20.0,18.0,-100.00,West,259,20.0,30.0,90,0.00,,,0.00,,2013-03-12 07:52:00,
2013-03-12 02:02:00,20.0,18.0,-100.00,West,259,20.0,30.0,90,0.00,,,0.00,,2013-03-12 08:02:00,
2013-03-12 02:13:00,20.0,18.0,-100.00,West,259,20.0,30.0,90,0.00,,,0.00,,2013-03-12 08:13:00,
2013-03-12 02:22:00,20.0,18.0,-100.00,West,259,20.0,30.0,90,0.00,,,0.00,,2013-03-12 08:22:00,
2013-03-12 02:52:00,20.0,18.0,-100.00,West,265,14.0,25.0,91,0.00,,,0.00,,2013-03-12 08:52:00,
2013-03-12 03:03:00,20.0,18.0,-100.00,West,265,14.0,25.0,91,0.00,,,0.00,,2013-03-12 09:03:00,
2013-03-12 03:12:00,20.0,18.0,-100.00,West,265,14.0,25.0,91,0.00,,,0.00,,2013-03-12 09:12:00,
2013-03-12 03:22:00,20.0,18.0,-100.00,West,265,14.0,25.0,91,0.00,,,0.00,,2013-03-12 09:22:00,
2013-03-12 03:52:00,20.0,18.0,-100.00,WSW,257,18.0,24.0,91,0.00,,,0.00,,2013-03-12 09:52:00,
2013-03-12 04:02:00,20.0,18.0,-100.00,WSW,257,18.0,24.0,91,0.00,,,0.00,,2013-03-12 10:02:00,
2013-03-12 04:12:00,20.0,18.0,-100.00,WSW,257,18.0,24.0,91,0.00,,,0.00,,2013-03-12 10:12:00,
2013-03-12 04:22:00,20.0,18.0,-100.00,WSW,257,18.0,24.0,91,0.00,,,0.00,,2013-03-12 10:22:00,
2013-03-12 04:53:00,20.0,18.0,-100.00,West,266,15.0,25.0,91,0.00,,,0.00,,2013-03-12 10:53:00,
2013-03-12 05:02:00,20.0,18.0,-100.00,West,266,15.0,25.0,91,0.00,,,0.00,,2013-03-12 11:02:00,
2013-03-12 05:12:00,20.0,18.0,-100.00,West,266,15.0,25.0,91,0.00,,,0.00,,2013-03-12 11:12:00,
2013-03-12 05:22:00,20.0,18.0,-100.00,West,266,15.0,25.0,91,0.00,,,0.00,,2013-03-12 11:22:00,
2013-03-12 05:52:00,20.0,18.0,-100.00,West,259,11.0,22.0,91,0.00,,,0.00,,2013-03-12 11:52:00,
2013-03-12 06:02:00,20.0,18.0,-100.00,West,259,11.0,22.0,91,0.00,,,0.00,,2013-03-12 12:02:00,
2013-03-12 06:12:00,20.0,18.0,-100.00,West,259,11.0,22.0,91,0.00,,,0.00,,2013-03-12 12:12:00,
2013-03-12 06:22:00,20.0,18.0,-100.00,West,259,11.0,22.0,91,0.00,,,0.00,,2013-03-12 12:22:00,
2013-03-12 06:52:00,20.0,18.0,-100.00,West,264,13.0,21.0,91,0.00,,,0.00,,2013-03-12 12:52:00,
2013-03-12 07:02:00,20.0,18.0,-100.00,West,264,13.0,21.0,91,0.00,,,0.00,,2013-03-12 13:02:00,
2013-03-12 07:12:00,20.0,18.0,-100.00,West,264,13.0,21.0,91,0.00,,,0.00,,2013-03-12 13:12:00,
2013-03-12 07:22:00,20.0,18.0,-100.00,West,264,13.0,21.0,91,0.00,,,0.00,,2013-03-12 13:22:00,
2013-03-12 07:52:00,20.0,18.0,-100.00,WSW,255,13.0,20.0,91,0.00,,,0.00,,2013-03-12 13:52:00,
2013-03-12 08:02:00,20.0,18.0,-100.00,WSW,255,13.0,20.0,91,0.00,,,0.00,,2013-03-12 14:02:00,
2013-03-12 08:12:00,20.0,18.0,-100.00,WSW,255,13.0,20.0,91,0.00,,,0.00,,2013-03-12 14:12:00,
2013-03-12 08:22:00,20.0,18.0,-100.00,WSW,255,13.0,20.0,91,0.00,,,0.00,,2013-03-12 14:22:00,
2013-03-12 08:53:00,21.0,19.0,-100.00,West,271,14.0,21.0,91,0.00,,,0.00,,2013-03-12 14:53:00,
2013-03-12 09:02:00,21.0,19.0,-100.00,West,271,14.0,21.0,91,0.00,,,0.00,,2013-03-12 15:02:00,
2013-03-12 09:12:00,21.0,19.0,-100.00,West,271,14.0,21.0,91,0.00,,,0.00,,2013-03-12 15:12:00,
2013-03-12 09:22:00,21.0,19.0,-100.00,West,271,14.0,21.0,91,0.00,,,0.00,,2013-03-12 15:22:00,
2013-03-12 09:53:00,21.0,18.0,-100.00,West,269,15.0,22.0,89,0.00,,,0.00,,2013-03-12 15:53:00,
2013-03-12 10:02:00,21.0,18.0,-100.00,West,269,15.0,22.0,89,0.00,,,0.00,,2013-03-12 16:02:00,
2013-03-12 10:12:00,21.0,18.0,-100.00,West,269,15.0,22.0,89,0.00,,,0.00,,2013-03-12 16:12:00,
2013-03-12 10:22:00,21.0,18.0,-100.00,West,269,15.0,22.0,89,0.00,,,0.00,,2013-03-12 16:22:00,
2013-03-12 10:53:00,23.0,20.0,-100.00,West,274,18.0,26.0,87,0.00,,,0.00,,2013-03-12 16:53:00,
2013-03-12 11:03:00,23.0,20.0,-100.00,West,274,18.0,26.0,87,0.00,,,0.00,,2013-03-12 17:03:00,
2013-03-12 11:13:00,23.0,20.0,-100.00,West,274,18.0,26.0,87,0.00,,,0.00,,2013-03-12 17:13:00,
2013-03-12 11:22:00,23.0,20.0,-100.00,West,274,18.0,26.0,87,0.00,,,0.00,,2013-03-12 17:22:00,
2013-03-12 11:53:00,25.0,21.0,-100.00,West,279,14.0,23.0,85,0.01,,,0.01,,2013-03-12 17:53:00,
2013-03-12 12:03:00,25.0,21.0,-100.00,West,279,14.0,23.0,85,0.01,,,0.01,,2013-03-12 18:03:00,
2013-03-12 12:13:00,25.0,21.0,-100.00,West,279,14.0,23.0,85,0.01,,,0.01,,2013-03-12 18:13:00,
2013-03-12 12:23:00,25.0,21.0,-100.00,West,279,14.0,23.0,85,0.01,,,0.01,,2013-03-12 18:23:00,
2013-03-12 12:53:00,26.0,21.0,-100.00,WNW,300,16.0,25.0,81,0.00,,,0.01,,2013-03-12 18:53:00,
2013-03-12 13:03:00,26.0,21.0,-100.00,WNW,300,16.0,25.0,81,0.00,,,0.01,,2013-03-12 19:03:00,
2013-03-12 13:13:00,26.0,21.0,-100.00,WNW,300,16.0,25.0,81,0.00,,,0.01,,2013-03-12 19:13:00,
2013-03-12 13:22:00,26.0,21.0,-100.00,WNW,300,16.0,25.0,81,0.00,,,0.01,,2013-03-12 19:22:00,
2013-03-12 13:53:00,26.0,21.0,-100.00,WNW,296,13.0,23.0,82,0.00,,,0.01,,2013-03-12 19:53:00,
2013-03-12 14:02:00,26.0,21.0,-100.00,WNW,296,13.0,23.0,82,0.00,,,0.01,,2013-03-12 20:02:00,
2013-03-12 14:12:00,26.0,21.0,-100.00,WNW,296,13.0,23.0,82,0.00,,,0.01,,2013-03-12 20:12:00,
2013-03-12 14:22:00,26.0,21.0,-100.00,WNW,296,13.0,23.0,82,0.00,,,0.01,,2013-03-12 20:22:00,
2013-03-12 14:53:00,27.0,22.0,-100.00,WNW,288,12.0,23.0,81,0.00,,,0.01,,2013-03-12 20:53:00,
2013-03-12 15:02:00,27.0,22.0,-100.00,WNW,288,12.0,23.0,81,0.00,,,0.01,,2013-03-12 21:02:00,
2013-03-12 15:13:00,27.0,22.0,-100.00,WNW,288,12.0,23.0,81,0.00,,,0.01,,2013-03-12 21:13:00,
2013-03-12 15:22:00,27.0,22.0,-100.00,WNW,288,12.0,23.0,81,0.00,,,0.01,,2013-03-12 21:22:00,
2013-03-12 15:53:00,30.0,24.0,-100.00,WNW,303,6.0,19.0,77,0.00,,,0.01,,2013-03-12 21:53:00,
2013-03-12 16:02:00,30.0,24.0,-100.00,WNW,303,6.0,19.0,77,0.00,,,0.01,,2013-03-12 22:02:00,
2013-03-12 16:12:00,30.0,24.0,-100.00,WNW,303,6.0,19.0,77,0.00,,,0.01,,2013-03-12 22:12:00,
2013-03-12 16:22:00,30.0,24.0,-100.00,WNW,303,6.0,19.0,77,0.00,,,0.01,,2013-03-12 22:22:00,
2013-03-12 16:53:00,30.0,21.0,-100.00,WNW,289,13.0,18.0,68,0.01,,,0.02,,2013-03-12 22:53:00,
2013-03-12 17:02:00,30.0,21.0,-100.00,WNW,289,13.0,18.0,68,0.01,,,0.02,,2013-03-12 23:02:00,
2013-03-12 17:12:00,30.0,21.0,-100.00,WNW,289,13.0,18.0,68,0.01,,,0.02,,2013-03-12 23:12:00,
2013-03-12 17:22:00,30.0,21.0,-100.00,WNW,289,13.0,18.0,68,0.01,,,0.02,,2013-03-12 23:22:00,
2013-03-12 17:52:00,27.0,20.0,-100.00,West,279,10.0,20.0,75,0.00,,,0.02,,2013-03-12 23:52:00,
2013-03-12 18:03:00,27.0,20.0,-100.00,West,279,10.0,20.0,75,0.00,,,0.02,,2013-03-13 00:03:00,
2013-03-12 18:12:00,27.0,20.0,-100.00,West,279,10.0,20.0,75,0.00,,,0.02,,2013-03-13 00:12:00,
2013-03-12 18:23:00,27.0,20.0,-100.00,West,279,10.0,20.0,75,0.00,,,0.02,,2013-03-13 00:23:00,
2013-03-12 18:53:00,25.0,19.0,-100.00,West,267,5.0,12.0,77,0.00,,,0.02,,2013-03-13 00:53:00,
2013-03-12 19:03:00,25.0,19.0,-100.00,West,267,5.0,12.0,77,0.00,,,0.02,,2013-03-13 01:03:00,
2013-03-12 19:12:00,25.0,19.0,-100.00,West,267,5.0,12.0,77,0.00,,,0.02,,2013-03-13 01:12:00,
2013-03-12 19:22:00,25.0,19.0,-100.00,West,267,5.0,12.0,77,0.00,,,0.02,,2013-03-13 01:22:00,
2013-03-12 19:53:00,23.0,18.0,-100.00,West,260,5.0,11.0,81,0.00,,,0.02,,2013-03-13 01:53:00,
2013-03-12 20:02:00,23.0,18.0,-100.00,West,260,5.0,11.0,81,0.00,,,0.02,,2013-03-13 02:02:00,
2013-03-12 20:12:00,23.0,18.0,-100.00,West,260,5.0,11.0,81,0.00,,,0.02,,2013-03-13 02:12:00,
2013-03-12 20:22:00,23.0,18.0,-100.00,West,260,5.0,11.0,81,0.00,,,0.02,,2013-03-13 02:22:00,
2013-03-12 20:53:00,24.0,19.0,-100.00,SSW,207,3.0,6.0,80,0.00,,,0.02,,2013-03-13 02:53:00,
2013-03-12 21:02:00,24.0,19.0,-100.00,SSW,207,3.0,6.0,80,0.00,,,0.02,,2013-03-13 03:02:00,
2013-03-12 21:12:00,24.0,19.0,-100.00,SSW,207,3.0,6.0,80,0.00,,,0.02,,2013-03-13 03:12:00,
2013-03-12 21:22:00,24.0,19.0,-100.00,SSW,207,3.0,6.0,80,0.00,,,0.02,,2013-03-13 03:22:00,
2013-03-12 21:53:00,24.0,18.0,-100.00,WSW,250,5.0,11.0,77,0.00,,,0.02,,2013-03-13 03:53:00,
2013-03-12 22:03:00,24.0,18.0,-100.00,WSW,250,5.0,11.0,77,0.00,,,0.02,,2013-03-13 04:03:00,
2013-03-12 22:13:00,24.0,18.0,-100.00,WSW,250,5.0,11.0,77,0.00,,,0.02,,2013-03-13 04:13:00,
2013-03-12 22:22:00,24.0,18.0,-100.00,WSW,250,5.0,11.0,77,0.00,,,0.02,,2013-03-13 04:22:00,
2013-03-12 22:53:00,24.0,18.0,-100.00,WSW,246,6.0,9.0,76,0.00,,,0.02,,2013-03-13 04:53:00,
2013-03-12 23:02:00,24.0,18.0,-100.00,WSW,246,6.0,9.0,76,0.00,,,0.02,,2013-03-13 05:02:00,
2013-03-12 23:12:00,24.0,18.0,-100.00,WSW,246,6.0,9.0,76,0.00,,,0.02,,2013-03-13 05:12:00,
2013-03-12 23:22:00,24.0,18.0,-100.00,WSW,246,6.0,9.0,76,0.00,,,0.02,,2013-03-13 05:22:00,
2013-03-12 23:52:00,25.0,18.0,-100.00,SW,233,6.0,9.0,75,0.00,,,0.02,,2013-03-13 05:52:00,